KIND Airport Diagram

We have created a template for each of the higher traffic airports in the vZID airspace. They include KCMH, KCRW, KCVG, KDAY, KIND, KLEX and KSDF. You wil find usefull information including the airport diagram, weather, and specific airport procedures.

KIND Weather

[Source: ADDS]
METAR
KIND 180054Z 29008KT 1 1/2SM BR OVC003 01/01 A3001 RMK AO2 SFC VIS 3 SLP170 T00110011 =
KIND 172320Z 1800/1906 27005KT 1/2SM -DZ FG OVC002 FM180200 28005KT 3SM BR OVC003 FM180600 29006KT 5SM BR OVC004 FM181300 VRB03KT P6SM OVC006 FM181700 05004KT P6SM OVC008
TAF
KIND 172320Z 1800/1906 27005KT 1/2SM -DZ FG OVC002 FM180200 28005KT 3SM BR OVC003 FM180600 29006KT 5SM BR OVC004 FM181300 VRB03KT P6SM OVC006 FM181700 05004KT P6SM OVC008 =

KIND Operations

 Calm Wind Configuration is runways 23L/R, up to and including 10kts.

Runway 23L typically departs South and East, Runway 23R typically departs North and West.

FedEx pilots should expect runway 23L or 5R.

Contraflow (noise abatement) procedures from 2200L to 0600L, landing Runway 5R, departing Runway 23R, weather permitted.

New Scenery is available at FlightSim.com and Blueprint Simulations. On initial contact, arriving aircraft should notify the the controller if their scenery has the Midfield Terminal.

FBOs: Signature is near taxiway D and Millionaire is near taxiway A, both are North of taxiway M.

 

JSN Epic template designed by JoomlaShine.com